Location: Saint André
(43.5594°N, 1.3519°W)
Time: 08:13:55
(UTC+00:00)

BlueWalker 3 - Visible Passes

Search period start: 09 February 2026 00:00
Search period end: 19 February 2026 00:00
Orbit: 450 x 461 km, 53.2° (Epoch: 8 February)

Date Brightness Start Highest point End Pass type
(mag) Time Alt. Az. Time Alt. Az. Time Alt. Az.
9 Feb 4.4 19:05:23 10° W 19:07:58 19° SW 19:10:31 10° S visible
10 Feb 4.0 18:29:22 10° WNW 18:32:20 25° SW 18:35:16 10° S visible
11 Feb 3.7 17:53:27 10° WNW 17:56:40 32° SW 17:59:52 10° SSE visible
